• In Latvia
  • List of Countries
  • For 7 days
  • Water Temperature
  • Satellite Maps
  • Weather Map
  • Weather Widgets
  • user-avatar
    Login

    Hourly Weather Fier

    Today, 6 December, Tuesday

    Time Temperature Precipitation Wind Pressure Humidity
    00:00 +10°C° 0 mm 2 mps 770 mmHg 76%
    01:00 +9°C° 0 mm 2 mps 770 mmHg 76%
    02:00 +9°C° 0 mm 2 mps 770 mmHg 77%
    03:00 +9°C° 0 mm 2 mps 769 mmHg 77%
    04:00 +9°C° 0 mm 2 mps 769 mmHg 77%
    05:00 +9°C° 0 mm 2 mps 769 mmHg 78%
    06:00 +9°C° 0 mm 2 mps 769 mmHg 79%
    07:00 +9°C° 0 mm 2 mps 769 mmHg 79%
    08:00 +10°C° 0 mm 2 mps 769 mmHg 75%
    09:00 +13°C° 0 mm 1 mps 769 mmHg 70%
    10:00 +15°C° 0 mm 1 mps 769 mmHg 65%
    11:00 +15°C° 0 mm 1 mps 769 mmHg 64%
    12:00 +15°C° 0 mm 1 mps 768 mmHg 63%
    13:00 +16°C° 0 mm 1 mps 768 mmHg 62%
    14:00 +15°C° 0 mm 1 mps 768 mmHg 68%
    15:00 +13°C° 0 mm 1 mps 768 mmHg 75%
    16:00 +12°C° 0 mm 1 mps 768 mmHg 81%
    17:00 +11°C° 0 mm 1 mps 768 mmHg 83%
    18:00 +11°C° 0 mm 1 mps 768 mmHg 85%
    19:00 +9°C° 0 mm 2 mps 768 mmHg 87%
    20:00 +9°C° 0 mm 2 mps 769 mmHg 86%
    21:00 +9°C° 0 mm 2 mps 769 mmHg 86%
    22:00 +8°C° 0 mm 2 mps 769 mmHg 85%
    23:00 +8°C° 0 mm 2 mps 769 mmHg 84%

    Tomorrow, 7 December, Wednesday

    Time Temperature Precipitation Wind Pressure Humidity
    00:00 +8°C° 0 mm 2 mps 769 mmHg 83%
    01:00 +8°C° 0 mm 2 mps 769 mmHg 82%
    02:00 +8°C° 0 mm 2 mps 769 mmHg 82%
    03:00 +8°C° 0 mm 2 mps 769 mmHg 82%
    04:00 +8°C° 0 mm 2 mps 769 mmHg 81%
    05:00 +8°C° 0 mm 2 mps 770 mmHg 81%
    06:00 +8°C° 0 mm 2 mps 770 mmHg 80%
    07:00 +7°C° 0 mm 3 mps 770 mmHg 80%
    08:00 +9°C° 0 mm 3 mps 770 mmHg 73%
    09:00 +11°C° 0 mm 3 mps 771 mmHg 66%
    10:00 +13°C° 0 mm 3 mps 771 mmHg 59%
    11:00 +14°C° 0 mm 3 mps 771 mmHg 55%
    12:00 +14°C° 0 mm 3 mps 770 mmHg 52%
    13:00 +16°C° 0 mm 3 mps 770 mmHg 49%
    14:00 +14°C° 0 mm 3 mps 770 mmHg 53%
    15:00 +12°C° 0 mm 3 mps 771 mmHg 58%
    16:00 +11°C° 0 mm 3 mps 771 mmHg 63%
    17:00 +10°C° 0 mm 3 mps 772 mmHg 63%
    18:00 +8°C° 0 mm 4 mps 772 mmHg 64%
    19:00 +7°C° 0 mm 4 mps 773 mmHg 64%
    20:00 +7°C° 0 mm 4 mps 773 mmHg 64%
    21:00 +6°C° 0 mm 4 mps 774 mmHg 64%
    22:00 +6°C° 0 mm 4 mps 774 mmHg 64%
    23:00 +6°C° 0 mm 4 mps 774 mmHg 64%

    Day after tomorrow, 8 December, Thursday

    Time Temperature Precipitation Wind Pressure Humidity
    00:00 +5°C° 0 mm 4 mps 775 mmHg 64%
    01:00 +5°C° 0 mm 4 mps 775 mmHg 64%
    02:00 +5°C° 0 mm 4 mps 775 mmHg 64%
    03:00 +5°C° 0 mm 3 mps 775 mmHg 65%
    04:00 +5°C° 0 mm 3 mps 775 mmHg 65%
    05:00 +5°C° 0 mm 3 mps 775 mmHg 65%
    06:00 +4°C° 0 mm 3 mps 775 mmHg 66%
    07:00 +4°C° 0 mm 3 mps 775 mmHg 66%
    08:00 +7°C° 0 mm 3 mps 775 mmHg 60%
    09:00 +9°C° 0 mm 2 mps 775 mmHg 55%
    10:00 +12°C° 0 mm 2 mps 775 mmHg 50%
    11:00 +13°C° 0 mm 2 mps 775 mmHg 47%
    12:00 +14°C° 0 mm 2 mps 775 mmHg 44%
    13:00 +15°C° 0 mm 1 mps 774 mmHg 42%
    14:00 +13°C° 0 mm 1 mps 774 mmHg 48%
    15:00 +10°C° 0 mm 2 mps 774 mmHg 54%
    16:00 +9°C° 0 mm 2 mps 774 mmHg 61%
    17:00 +8°C° 0 mm 2 mps 774 mmHg 60%
    18:00 +7°C° 0 mm 2 mps 774 mmHg 60%
    19:00 +6°C° 0 mm 2 mps 774 mmHg 60%
    20:00 +6°C° 0 mm 2 mps 774 mmHg 58%
    21:00 +7°C° 0 mm 1 mps 774 mmHg 55%
    22:00 +7°C° 0 mm 1 mps 774 mmHg 53%
    23:00 +6°C° 0 mm 2 mps 774 mmHg 51%

    9 December, Friday

    Time Temperature Precipitation Wind Pressure Humidity
    00:00 +6°C° 0 mm 2 mps 773 mmHg 49%
    01:00 +5°C° 0 mm 2 mps 773 mmHg 47%
    02:00 +5°C° 0 mm 2 mps 773 mmHg 45%
    03:00 +5°C° 0 mm 2 mps 772 mmHg 44%
    04:00 +5°C° 0 mm 2 mps 772 mmHg 42%
    05:00 +5°C° 0 mm 2 mps 772 mmHg 41%
    06:00 +6°C° 0 mm 1 mps 772 mmHg 40%
    07:00 +6°C° 0 mm 1 mps 772 mmHg 38%
    08:00 +8°C° 0 mm 1 mps 772 mmHg 35%
    09:00 +11°C° 0 mm 1 mps 772 mmHg 32%
    10:00 +13°C° 0 mm 1 mps 772 mmHg 29%
    11:00 +14°C° 0 mm 2 mps 772 mmHg 33%
    12:00 +14°C° 0 mm 2 mps 771 mmHg 37%
    13:00 +15°C° 0 mm 2 mps 771 mmHg 41%
    14:00 +13°C° 0 mm 2 mps 771 mmHg 50%
    15:00 +10°C° 0 mm 2 mps 770 mmHg 59%
    16:00 +8°C° 0 mm 2 mps 770 mmHg 69%
    17:00 +7°C° 0 mm 2 mps 770 mmHg 71%
    18:00 +7°C° 0 mm 2 mps 770 mmHg 73%
    19:00 +6°C° 0 mm 2 mps 770 mmHg 75%
    20:00 +6°C° 0 mm 2 mps 770 mmHg 73%
    21:00 +6°C° 0 mm 2 mps 770 mmHg 71%
    22:00 +6°C° 0 mm 2 mps 771 mmHg 69%
    23:00 +6°C° 0 mm 2 mps 770 mmHg 67%

    10 December, Saturday

    Time Temperature Precipitation Wind Pressure Humidity
    00:00 +6°C° 0 mm 2 mps 770 mmHg 66%
    01:00 +6°C° 0 mm 2 mps 770 mmHg 65%
    02:00 +6°C° 0 mm 2 mps 770 mmHg 64%
    03:00 +6°C° 0 mm 2 mps 769 mmHg 63%
    04:00 +6°C° 0 mm 2 mps 769 mmHg 63%
    05:00 +6°C° 0 mm 2 mps 769 mmHg 59%
    06:00 +6°C° 0 mm 2 mps 769 mmHg 56%
    07:00 +6°C° 0 mm 2 mps 769 mmHg 52%
    08:00 +9°C° 0 mm 2 mps 769 mmHg 47%
    09:00 +12°C° 0 mm 2 mps 769 mmHg 42%
    10:00 +15°C° 0 mm 1 mps 769 mmHg 37%
    11:00 +15°C° 0 mm 1 mps 769 mmHg 38%
    12:00 +16°C° 0 mm 2 mps 769 mmHg 38%
    13:00 +17°C° 0 mm 2 mps 768 mmHg 39%
    14:00 +15°C° 0 mm 2 mps 768 mmHg 47%
    15:00 +13°C° 0 mm 2 mps 768 mmHg 55%
    16:00 +10°C° 0 mm 2 mps 768 mmHg 63%
    17:00 +10°C° 0 mm 1 mps 768 mmHg 64%
    18:00 +9°C° 0 mm 1 mps 768 mmHg 66%
    19:00 +9°C° 0 mm 1 mps 768 mmHg 67%
    20:00 +9°C° 0 mm 1 mps 768 mmHg 67%
    21:00 +8°C° 0 mm 1 mps 768 mmHg 67%
    22:00 +8°C° 0 mm 1 mps 768 mmHg 67%
    23:00 +8°C° 0 mm 1 mps 768 mmHg 68%

    11 December, Sunday

    Time Temperature Precipitation Wind Pressure Humidity
    00:00 +8°C° 0 mm 1 mps 768 mmHg 69%
    01:00 +8°C° 0 mm 1 mps 767 mmHg 70%
    02:00 +8°C° 0 mm 1 mps 767 mmHg 70%
    03:00 +8°C° 0 mm 1 mps 767 mmHg 70%
    04:00 +7°C° 0 mm 1 mps 766 mmHg 70%
    05:00 +7°C° 0 mm 1 mps 766 mmHg 68%
    06:00 +7°C° 0 mm 1 mps 766 mmHg 67%
    07:00 +7°C° 0 mm 1 mps 766 mmHg 65%
    08:00 +10°C° 0 mm 1 mps 766 mmHg 55%
    09:00 +13°C° 0 mm 1 mps 766 mmHg 46%
    10:00 +15°C° 0 mm 1 mps 766 mmHg 36%
    11:00 +16°C° 0 mm 1 mps 765 mmHg 38%
    12:00 +16°C° 0 mm 1 mps 764 mmHg 39%
    13:00 +16°C° 0 mm 1 mps 764 mmHg 41%
    14:00 +14°C° 0 mm 1 mps 764 mmHg 50%
    15:00 +12°C° 0 mm 1 mps 763 mmHg 59%
    16:00 +11°C° 0 mm 1 mps 763 mmHg 67%
    17:00 +10°C° 0 mm 1 mps 763 mmHg 70%
    18:00 +8°C° 0 mm 0 mps 763 mmHg 72%
    19:00 +8°C° 0 mm 0 mps 763 mmHg 75%
    20:00 +7°C° 0 mm 0 mps 763 mmHg 77%
    21:00 +7°C° 0 mm 0 mps 762 mmHg 79%
    22:00 +7°C° 0 mm 0 mps 762 mmHg 82%
    23:00 +8°C° 0 mm 1 mps 762 mmHg 83%
    Show more